SCP
0 0 0 -0 -0 -0 -0 -0 -0 -0 0 0 0 0 0 0 0 0 0 -0 -0 -0 0 0 0 0 0 0 0 0 0 0 0 0 0 0 0 0 0 -0 -0 0 0
0 0 0 0 -0 -0 -0 -0 -0 -0 -0 -0 0 0 0 0 0 0 0 -0 -0 -0 -0 0 0 0 0 0 0 0 0 0 0 0 0 0 0 0 0 -0 0 0 0
0 0 0 0 0 0 0 -0 -0 -0 -0 -0 -0 -0 -0 -0 -0 0 0 0 -0 -0 -0 -0 0 0 0 0 0 0 0 0 0 0 0 0 0 0 0 0 0 0 0
0 0 0 0 0 0 0 0 0 -0 -0 -0 -0 -0 -0 -0 -0 -0 -0 -0 -0 -0 -0 -0 0 0 0 0 0 0 0 0 0 0 0 0 0 0 0 0 0 0 0
0 0 0 0 0 0 0 0 0 0 0 0 -0 -0 -0 -0 -0 -0 -0 -0 -0 -0 -0 -0 -0 0 0 0 0 0 0 0 0 0 0 0 0 0 0 0 0 0 0
0 0 0 0 0 0 0 0 0 0 0 0 0 0 0 0 -0 -0 -0 -0 -0 -0 -0 -0 -0 0 0 0 0 0 0 0 0 0 0 0 0 0 0 0 0 0 0
0 0 0 0 0 0 0 0 0 0 0 0 0 0 0 0 0 0 0 0 0 -0 -0 -0 -0 0 0 0 0 0 0 0 0 0 0 0 0 0 0 0 0 0 0
0 0 0 0 0 0 0 0 0 0 0 0 0 0 0 0 0 0 0 0 0 0 0 0 0 0 0 0 0 0 0 0 0 0 0 0 0 0 0 0 0 0 0
0 0 0 0 0 0 0 0 0 0 0 0 0 0 0 0 0 0 0 0 0 0 0 0 0 0 0 0 0 0 0 0 0 0 0 0 0 0 0 0 0 0 0
0 0 0 0 0 0 0 0 0 0 0 0 0 0 0 0 0 0 0 0 0 0 0 0 0 0 0 0 0 0 0 0 0 0 0 0 0 0 0 0 0 0 0
0 0 0 0 0 0 0 0 0 0 0 0 0 0 0 0 0 0 0 0 0 0 0 0 0 0 0 0 0 0 0 0 0 0 0 0 0 0 0 0 0 0 0
0 0 0 0 0 0 0 0 0 0 0 0 0 0 0 0 0 0 0 0 0 0 0 0 0 0 0 0 0 0 0 0 0 0 0 0 0 0 0 0 0 0 0
0 0 0 0 0 0 0 0 0 0 0 0 0 0 0 0 0 0 0 0 0 0 0 0 0 0 0 0 0 0 0 0 0 0 0 0 0 0 0 0 0 0 0
0 0 0 0 0 0 0 0 0 0 0 0 0 0 0 0 0 0 0 0 0 0 0 0 0 0 0 0 0 0 0 0 0 0 0 0 0 0 0 0 0 0 0
0 0 0 0 0 0 0 0 0 0 0 0 0 0 0 0 0 0 0 0 0 0 0 0 0 0 0 0 0 0 0 0 0 0 0 0 0 0 0 0 0 0 0
0 0 0 0 0 0 0 0 0 0 0 0 0 0 0 0 0 0 0 0 0 0 0 0 0 0 0 0 0 0 0 0 0 0 0 0 0 0 0 0 0 0 0
0 0 0 0 0 0 0 0 0 0 0 0 1 0 0 0 0 0 0 0 0 0 0 0 0 0 0 0 0 0 0 0 0 0 0 0 0 0 0 0 0 0 0
0 0 0 0 0 0 0 0 0 0 0 1 1 1 1 0 0 0 0 0 0 0 0 0 0 0 0 0 0 0 0 0 0 0 0 0 0 0 0 0 0 0 0
0 0 0 0 0 0 0 0 0 0 1 1 1 1 1 1 0 0 0 0 0 0 0 0 0 0 0 0 0 0 0 0 0 0 0 0 0 0 0 0 0 0 0
0 0 0 0 0 0 0 0 0 0 1 1 1 1 1 1 1 1 0 0 0 0 0 0 0 0 0 0 0 0 0 0 0 0 0 0 0 0 0 0 0 0 0
0 0 0 0 0 0 0 0 0 0 1 1 1 1 1 1 1 1 1 1 1 0 0 0 0 0 0 0 0 0 0 0 0 0 0 0 0 0 0 0 0 0 0
0 0 0 0 0 0 0 0 0 0 0 1 1 1 1 1 1 1 1 1 1 0 0 0 0 0 0 0 0 0 0 0 0 0 0 0 0 0 0 0 0 0 0
0 0 0 0 0 0 0 0 0 0 0 0 1 1 1 1 1 1 1 1 1 0 0 0 0 0 0 0 0 0 0 0 0 0 0 0 0 0 0 0 0 0 0
0 0 0 0 0 0 0 0 0 0 0 0 1 1 1 1 1 1 1 1 1 0 0 0 0 0 0 0 0 0 0 0 0 0 0 0 0 0 0 0 0 0 0
0 0 0 0 0 0 0 0 0 0 0 0 0 1 1 1 1 1 1 1 1 1 0 0 0 0 0 0 0 0 0 0 0 0 0 0 0 0 0 0 0 0 0
0 0 0 0 0 0 0 0 0 0 0 0 0 1 1 1 1 1 1 1 1 0 0 0 0 0 0 0 0 0 0 0 0 0 0 0 0 0 0 0 0 0 0
Wind_Speed
11 13 14 11 11 11 10 10 10 10 10 10 9 9 9 8 8 7 6 5 5 4 3 3 3 3 3 3 3 3 4 4 5 5 5 5 5 5 5 4 4 6 8
13 14 14 12 12 11 11 10 10 10 9 9 9 8 8 7 7 7 6 5 4 4 3 3 4 3 3 3 3 3 4 4 5 5 4 5 6 5 5 3 3 6 7
14 14 14 12 12 12 11 10 10 9 9 9 9 8 8 7 7 6 6 5 4 4 3 3 3 3 3 3 3 3 3 4 4 3 2 3 7 6 5 5 5 6 6
13 13 13 13 12 11 11 10 10 9 9 9 8 8 7 7 6 6 6 5 4 3 3 3 3 3 3 3 3 4 4 4 3 3 1 4 5 8 5 4 5 5 5
12 11 12 12 12 11 10 10 9 9 9 8 8 8 7 6 6 5 5 5 4 3 3 3 3 3 3 3 3 3 4 4 2 3 3 4 5 6 5 5 4 5 5
11 10 12 11 11 11 10 9 9 9 8 8 8 8 7 7 6 5 5 4 4 4 3 3 2 2 2 3 3 3 4 3 5 2 3 3 5 6 5 5 5 6 6
10 9 11 10 10 10 9 9 9 8 8 8 8 7 7 6 6 5 4 4 4 3 3 3 2 2 2 2 3 3 3 3 2 2 2 3 5 5 4 5 5 5 6
8 8 10 11 9 9 8 8 8 8 9 9 8 7 7 6 6 5 4 4 4 3 3 3 2 2 2 2 3 3 2 5 3 2 2 4 6 3 4 4 4 5 5
6 6 6 9 10 10 8 8 8 9 9 9 8 8 7 7 6 5 5 4 4 4 3 3 2 2 2 2 2 2 2 3 3 2 2 4 5 3 3 3 4 4 5
5 6 6 6 7 8 9 10 9 9 10 9 9 9 8 7 7 6 8 6 5 4 4 3 3 3 2 2 2 2 2 6 3 3 2 6 3 2 3 3 3 4 4
2 4 5 6 6 6 6 7 9 10 10 10 10 10 9 9 9 9 7 6 5 5 4 4 3 3 3 5 3 2 5 4 3 1 3 7 2 2 2 3 3 4 4
3 4 5 6 6 7 5 5 6 7 8 9 8 9 9 7 5 5 9 6 6 6 6 5 4 6 9 7 8 7 5 4 4 2 5 5 1 1 2 3 3 4 4
6 5 6 6 7 7 5 6 4 4 5 7 9 9 7 6 5 6 5 8 9 9 8 8 9 8 7 4 3 5 3 3 2 2 6 5 1 1 3 3 3 4 4
9 8 8 8 7 8 7 6 6 5 5 6 8 9 7 5 5 5 5 5 5 5 5 5 5 6 6 7 7 6 6 4 2 1 6 5 1 1 2 3 3 4 4
10 9 9 9 8 8 7 7 7 7 7 7 6 7 8 6 7 6 6 5 6 5 6 6 6 6 6 6 5 5 5 4 3 3 5 6 2 1 1 3 3 4 4
10 10 9 9 8 8 7 7 7 7 7 7 6 8 9 7 7 6 7 6 6 5 5 6 7 6 6 5 6 6 5 5 4 3 3 7 6 2 1 2 3 4 4
10 10 10 9 8 8 8 8 7 7 7 7 7 9 9 9 8 7 6 6 6 6 8 6 7 6 5 6 7 7 5 5 4 4 4 2 6 7 3 2 2 3 3
10 10 9 8 9 9 8 8 6 6 7 6 6 7 9 9 9 7 6 7 6 5 5 5 6 6 6 7 6 6 6 5 6 4 4 5 3 4 7 5 2 3 3
11 10 10 9 9 9 8 7 7 6 6 6 6 6 7 9 10 8 7 7 8 6 5 6 6 6 6 6 5 5 5 5 5 5 6 5 5 4 4 8 6 3 3
11 10 10 9 9 9 7 6 5 5 6 6 6 6 7 7 9 8 7 9 8 6 6 6 7 6 5 5 6 5 5 5 5 5 5 4 4 6 4 5 7 7 6
12 11 10 10 9 7 6 6 5 5 5 5 6 8 9 8 9 8 7 7 7 6 7 8 7 7 6 6 6 5 5 7 6 5 5 5 6 5 6 6 4 4 6
13 12 12 11 10 9 6 6 5 6 6 6 6 7 9 9 9 8 8 6 7 6 7 7 6 5 6 6 5 4 5 6 5 6 6 6 7 6 7 6 6 6 4
14 13 11 12 11 9 9 6 6 5 5 5 6 6 7 9 9 8 8 7 7 7 7 7 7 7 6 6 7 5 5 5 4 6 7 7 7 5 6 6 7 7 7
14 13 12 11 11 10 8 7 7 6 6 6 5 5 6 7 8 9 9 9 8 7 7 7 7 6 6 5 4 5 6 3 3 3 4 6 6 7 7 6 6 7 7
13 12 12 12 11 10 8 7 7 5 5 5 5 5 5 5 6 8 9 9 9 7 8 8 7 7 6 6 5 4 5 4 6 4 4 4 4 5 5 6 5 5 6
13 12 11 11 11 10 9 7 6 5 5 5 4 4 3 3 4 6 7 8 8 7 8 8 8 9 8 8 6 5 5 4 5 4 5 4 3 3 3 3 4 4 4
Wind_Direction
157 151 144 151 144 139 135 132 132 135 139 142 147 151 154 156 157 158 158 156 154 157 161 162 151 144 135 126 116 107 103 97 90 84 85 84 89 101 106 120 161 121 108
150 148 145 151 147 143 139 137 135 136 137 139 141 144 146 149 152 156 160 157 153 153 155 156 151 149 138 134 128 115 105 97 89 80 89 115 101 97 101 105 22 89 116
147 146 150 153 149 146 144 143 142 140 138 137 138 140 142 144 147 150 152 150 147 146 145 148 144 145 138 138 127 115 104 96 90 90 233 126 108 96 100 106 98 112 119
148 151 151 149 152 150 149 148 147 144 142 139 139 140 143 146 148 150 150 150 151 149 144 144 144 140 141 132 124 117 108 101 101 231 202 79 93 89 90 100 105 116 118
149 152 140 153 155 154 153 152 150 149 148 148 148 148 148 147 149 151 154 156 158 155 145 142 145 145 141 130 121 116 116 117 150 238 72 74 81 85 82 86 98 105 109
151 153 144 159 158 158 159 160 159 158 159 157 155 154 154 154 157 159 158 154 152 148 143 136 140 138 132 125 115 116 124 147 214 112 94 91 90 88 80 83 91 102 102
156 156 150 160 163 165 166 169 170 169 169 167 164 161 162 165 164 167 161 152 148 145 142 135 134 131 129 127 127 128 136 201 230 126 114 94 85 89 90 92 92 97 104
156 161 155 160 173 176 179 183 183 180 178 175 172 172 173 174 172 170 167 158 155 147 145 137 136 133 131 137 144 148 156 251 176 138 120 103 87 95 100 97 98 94 99
159 169 178 173 179 187 195 198 197 194 191 188 184 185 186 185 183 183 180 177 171 162 155 145 136 128 123 136 148 154 161 286 253 146 142 97 89 100 106 101 104 104 104
178 187 196 200 200 198 194 197 208 208 204 199 195 195 196 196 195 193 199 177 180 177 169 155 145 138 130 129 135 146 182 231 210 163 137 93 82 102 114 111 113 110 116
221 231 229 226 223 231 231 197 205 213 214 209 203 200 207 213 200 194 191 156 190 191 184 178 175 165 177 161 149 184 229 221 155 167 86 76 71 107 124 129 126 118 117
297 270 261 256 246 239 239 234 230 221 211 217 217 206 214 217 215 225 132 179 206 204 198 196 195 202 226 192 168 204 211 189 186 151 97 87 93 124 128 136 139 136 122
339 323 299 282 268 259 245 245 243 244 235 232 228 221 225 223 210 218 190 184 199 204 205 177 204 213 215 204 210 201 191 213 175 160 108 106 108 125 131 132 140 145 137
360 348 327 302 282 267 255 247 243 242 240 237 233 228 220 223 231 219 218 213 206 204 210 216 224 208 217 208 209 206 182 211 199 172 108 112 117 132 139 135 135 139 138
3 352 340 326 304 286 269 255 250 245 246 244 239 241 228 225 229 224 223 213 222 217 202 218 227 213 221 218 218 221 207 198 205 183 125 127 133 120 146 149 141 136 136
355 348 343 335 325 302 280 261 257 254 246 252 244 240 238 229 232 229 234 219 223 221 221 220 220 211 219 215 216 217 227 210 213 182 166 146 149 143 145 150 152 151 152
348 344 343 336 334 323 302 280 267 260 256 250 245 244 243 237 236 230 233 225 220 216 217 221 218 219 221 215 217 221 218 223 229 199 173 185 160 158 161 162 163 161 161
343 340 338 335 332 326 316 302 283 266 260 254 252 246 245 242 238 235 232 231 225 218 217 210 226 215 217 220 218 209 210 195 226 212 194 188 181 164 159 153 160 168 172
338 334 332 333 327 321 315 301 288 275 262 255 252 248 245 246 241 232 232 234 223 214 219 218 216 223 222 223 227 216 223 203 212 214 216 197 170 187 165 146 166 169 175
339 334 330 327 324 320 310 299 286 272 262 252 242 242 240 242 245 240 234 235 232 216 218 224 219 225 237 226 232 222 220 218 217 221 227 208 205 191 181 168 179 168 172
342 338 333 326 325 323 316 307 297 282 269 255 241 236 233 231 232 232 234 234 228 222 219 221 222 220 225 225 227 225 223 226 230 207 224 224 217 199 201 192 200 181 168
342 338 332 328 324 321 314 305 290 287 277 268 254 239 234 231 226 224 222 223 220 220 219 221 216 222 222 221 223 226 229 217 224 229 222 231 234 201 221 213 200 195 201
344 339 333 329 322 319 315 304 293 278 266 259 254 244 235 230 225 221 219 217 216 212 212 213 212 218 220 221 228 220 228 227 198 211 219 222 229 225 222 226 222 208 199
342 338 335 333 330 326 317 306 298 286 278 269 264 253 239 233 225 217 214 210 210 209 209 209 210 216 217 217 223 236 247 257 225 214 208 223 225 226 231 223 234 233 213
345 344 341 339 337 334 328 318 305 292 285 281 272 264 248 231 224 217 213 209 206 204 206 205 205 215 218 216 211 213 228 241 245 244 231 216 214 220 230 232 228 234 233
353 353 349 347 348 343 339 335 327 310 298 291 282 267 255 229 217 214 212 209 205 200 201 203 204 212 218 218 213 208 206 214 227 233 242 242 234 225 233 236 240 235 232